Location: Buckenweiler
(49.0667°N, 10.2500°E)
Time: 02:23:43
(UTC+00:00)

Daily predictions for brighter satellites

Satellite Brightness Start Highest point End
(mag) Time Altitude Azimuth Time Altitude Azimuth Time Altitude Azimuth
ATLAS 2AS CENTAUR R/B 3.6 03:16:43 39° NNE 03:16:49 39° NNE 03:23:07 10° E
Lacrosse 5 rocket 4.2 03:47:59 12° NE 03:47:59 12° NE 03:48:20 10° NE
BREEZE-M DEB (TANK) 4.2 03:54:08 61° SW 03:54:35 62° SW 03:59:20 10° SE
Cosmos 44 3.8 04:08:33 61° NNE 04:08:52 62° NE 04:14:13 10° SE
Cosmos 2082 Rocket 2.9 04:12:12 33° N 04:14:31 52° NE 04:20:04 10° SE
CZ-4C R/B 4.0 04:15:28 21° NNW 04:17:28 24° NNE 04:23:16 10° ENE
Meteor 2-10 Rocket 4.3 04:12:49 10° S 04:17:47 52° E 04:22:57 10° NNE
Cosmos 2278 Rocket 2.8 04:14:32 14° S 04:19:15 56° ESE 04:24:48 10° NE
Timation 1 Rocket 4.2 04:19:01 70° NW 04:19:42 81° WSW 04:25:41 10° SSE
BREEZE-M DEB (TANK) 4.4 04:23:13 47° W 04:26:08 89° N 05:00:00 10° E
COSMO-SKYMED 1 3.0 04:23:12 10° SSE 04:27:13 56° ENE 04:28:08 44° NNE
Cosmos 1943 Rocket 2.3 04:25:36 25° SSW 04:28:50 73° ESE 04:34:20 10° NNE
USA 307 3.1 04:32:58 58° E 04:32:58 58° E 04:36:19 10° ESE
Cosmos 1763 Rocket 4.5 04:30:51 18° N 04:34:18 43° ENE 04:39:08 10° SE
Cosmos 1140 Rocket 4.1 04:30:53 10° S 04:35:50 55° ESE 04:40:52 10° NNE
Gbstr 26 Del rocket 4.3 04:33:15 34° SW 04:36:46 72° SSE 04:43:20 10° ENE
TIMED 4.5 04:44:26 62° NNW 04:44:26 62° NNW 04:48:11 10° NNE
Cosmos 540 Rocket 4.4 04:40:31 15° N 04:44:33 45° ENE 04:49:25 10° SE
Timation 2 Rocket 4.0 04:45:01 10° SSW 04:51:37 87° ESE 04:57:57 10° NNE
Cosmos 1743 Rocket 3.6 04:49:13 10° S 04:53:37 79° E 04:58:03 10° NNE
Cosmos 2181 Rocket 4.2 04:49:05 10° NNW 04:55:10 49° W 05:01:18 10° SSW
Meteor 2-13 Rocket 4.5 04:49:43 10° NNW 04:55:38 52° W 05:01:29 10° SSW
Okean 1-7 4.1 04:52:17 10° N 04:56:16 43° ENE 05:00:15 10° SSE
CZ-4 R/B 3.7 04:53:07 10° NNE 04:57:57 83° WNW 05:02:49 10° SSW
Cosmos 2184 Rocket 3.8 04:54:30 10° SSW 05:00:40 73° W 05:06:52 10° N
GEOS 3 Rocket 3.7 04:55:51 10° SE 05:01:05 82° NE 05:04:15 26° NW
Lacrosse 4 Rocket 2.1 04:58:24 10° SSW 05:02:13 49° ESE 05:06:01 10° NE
FengYun 1-2 T 4.5 04:58:12 10° N 05:03:27 44° WNW 05:06:39 22° SW
NOSS 8 (E) 4.1 05:05:42 71° SSW 05:05:42 71° SSW 05:08:59 10° SE
Gblst 52 Del rocket 4.2 05:04:20 37° W 05:06:23 61° SSW 05:11:52 10° SE
NOAA 12 4.0 05:02:52 10° N 05:08:01 59° WNW 05:13:09 10° SSW
ATLAS 2AS CENTAUR R/B 2.6 05:04:09 26° NW 05:08:11 70° SW 05:14:54 10° SSE
Cosmos 1484 Rocket 3.3 05:05:23 10° NNE 05:08:43 51° E 05:12:03 10° S
BREEZE-M DEB (TANK) 4.3 05:08:20 29° WSW 05:09:55 39° SSW 05:20:07 10° SE
SJ 16-02 3.8 05:08:49 10° SSE 05:12:14 24° E 05:15:41 10° NE
Cosmos 2228 Rocket 3.7 05:07:55 10° N 05:12:15 56° ENE 05:16:32 10° SSE
Cosmos 1805 Rocket 3.9 05:12:38 10° SW 05:16:48 41° WNW 05:21:01 10° N
RUBIN 8/PSLV 4.3 05:15:08 10° N 05:19:21 76° WNW 05:23:32 10° SSW
Cosmos 407 Rocket 3.8 05:16:19 10° S 05:21:24 68° ESE 05:26:35 10° NNE
BREEZE-M DEB (TANK) 2.1 05:22:01 64° WSW 05:22:14 72° SSW 05:24:36 10° ESE
Cosmos 921 Rocket 3.5 05:21:33 32° W 05:22:14 35° WNW 05:26:08 10° N
Cosmos 2074 Rocket 4.1 05:16:49 10° SSW 05:22:54 50° WNW 05:29:02 10° N
Lacrosse 5 rocket 2.5 05:21:30 22° NNW 05:22:55 28° NNE 05:26:13 10° ENE
SMAP 4.2 05:18:53 10° NNE 05:23:24 46° E 05:27:51 10° S
IRS-1D 3.8 05:18:31 10° N 05:23:35 46° WNW 05:28:38 10° SW
Cosmos 1500 Rocket 4.1 05:20:25 10° SW 05:24:26 35° WNW 05:28:30 10° N
Okean 3 4.5 05:26:23 25° WSW 05:26:23 25° WSW 05:28:53 10° SSW
CENTAUR R/B 3.2 05:22:31 10° SSW 05:27:49 54° ESE 05:34:30 10° NE
Cosmos 1408 Rocket 4.3 05:28:03 27° W 05:28:47 29° WNW 05:32:33 10° N
Helios 1A Rocket 2.5 05:26:37 10° S 05:29:53 51° WSW 05:31:43 23° NW
Cosmos 1610 Rocket 4.4 05:24:57 10° SSW 05:31:02 68° WNW 05:37:12 10° N
Cosmos 1758 3.6 05:30:21 10° SW 05:33:49 37° WNW 05:37:18 10° N
SeaSat 1 3.7 05:29:39 10° NE 05:34:20 44° ESE 05:39:00 10° S
MOS 1 Rocket 4.1 05:30:05 10° NNE 05:34:28 50° E 05:38:39 10° S
ATLAS CENTAUR R/B 2.7 05:36:43 14° SW 05:36:43 14° SW 05:37:39 10° SSW
Nadezhda 3 Rocket 4.3 05:31:23 10° NNW 05:37:14 43° W 05:43:07 10° SSW
Cosmos 468 Rocket 4.1 05:34:04 10° NNW 05:39:14 77° ENE 05:44:23 10° SSE
SL-12 R/B(2) 4.4 05:35:56 10° SW 05:44:03 76° NW 05:54:08 10° NE
Thor Agena Rocket 4.1 05:41:00 10° NNE 05:46:05 62° ESE 05:51:12 10° S
IGS 5A 3.6 05:48:49 10° N 05:52:36 44° WNW 05:56:22 10° SW
Cosmos 2084 Rocket 3.6 05:50:18 17° NW 05:53:23 53° SW 05:57:29 10° SSE
CZ-2D R/B 3.5 05:51:45 10° NNE 05:54:49 55° E 05:57:52 10° S
Meteor 1-24 Rocket 3.9 05:50:06 10° NNW 05:56:09 78° W 06:02:08 10° S
Cosmos 1470 Rocket 3.5 05:52:21 10° S 05:56:39 87° E 06:00:58 10° N
Meteor 2-5 Rocket 3.8 05:51:32 10° NNW 05:57:25 83° W 06:03:21 10° S
SJ-12 4.4 05:53:44 10° NNE 05:57:31 58° E 06:01:16 10° S
Cosmos 2082 Rocket 3.0 05:54:04 13° NW 05:58:19 30° WSW 06:03:12 10° SSW
SL-23 DEB 3.4 05:57:06 16° W 05:59:25 61° N 06:02:56 10° ENE
Meteor 2-10 Rocket 4.5 05:55:55 10° WSW 06:00:08 25° WNW 06:04:32 10° N
USA 307 3.7 05:57:41 16° W 06:00:19 31° SW 06:03:43 10° SSE
Cosmos 2366 rocket 4.0 05:55:23 10° S 06:01:36 85° W 06:07:55 10° N
COSMO-SKYMED 1 4.0 06:00:17 10° SW 06:02:51 16° W 06:04:27 13° WNW
Cosmos 1328 3.8 06:00:03 10° NNW 06:03:30 46° W 06:06:58 10° SSW
Cosmos 2278 Rocket 2.9 05:58:40 10° WSW 06:03:39 31° NW 06:08:41 10° NNE
COSMOS 2406 3.5 05:58:25 10° NW 06:03:57 50° WSW 06:09:27 10° S
Cosmos 1862 Rocket 4.3 06:01:37 10° NNW 06:05:27 31° W 06:09:15 10° SSW
Cosmos 1656 Rocket 3.7 06:00:51 10° SSW 06:06:32 80° WNW 06:12:13 10° NNE
CZ-4C R/B 3.5 06:00:51 10° NW 06:07:13 50° NE 06:15:11 10° ESE
Cosmos 1461 2.6 06:04:36 10° SW 06:08:29 81° NW 06:12:24 10° NE
Cosmos 2218 Rocket 4.0 06:03:20 10° SSW 06:09:38 81° W 06:16:04 10° N
IRS-1C 4.5 06:05:25 10° NNE 06:10:46 72° ESE 06:16:04 10° S
Cosmos 1943 Rocket 3.2 06:08:38 10° W 06:13:07 25° NW 06:17:38 10° N
Cosmos 1763 Rocket 4.3 06:11:29 10° NW 06:15:51 30° W 06:20:12 10° SSW
YAOGAN 1 4.3 06:12:02 10° NNE 06:16:01 37° E 06:19:57 10° SSE
Cosmos 1140 Rocket 4.4 06:13:37 10° WSW 06:17:52 26° NW 06:22:10 10° N
Cosmos 1190 Rocket 4.0 06:12:54 10° SSW 06:18:06 88° WNW 06:23:20 10° NNE
Meteor 1-16 Rocket 4.4 06:14:49 10° S 06:20:15 77° E 06:25:36 10° NNE
Cosmos 2297 Rocket 4.3 06:16:53 10° N 06:20:33 17° NE 06:24:12 10° ENE
Cosmos 841 Rocket 3.5 06:16:22 10° NNW 06:21:34 86° ENE 06:26:42 10° SSE
Gbstr 26 Del rocket 4.1 06:16:29 10° W 06:23:45 72° N 06:29:47 10° ENE
NOSS 2-2 (C) 2.6 06:21:58 10° SW 06:25:14 73° NW 06:28:12 10° NE
Cosmos 540 Rocket 4.4 06:21:31 10° NW 06:25:50 28° W 06:30:08 10° SSW
Cosmos 1959 Rocket 4.5 06:20:33 10° SSW 06:26:37 65° WNW 06:32:43 10° N
Cosmos 1633 Rocket 3.8 06:24:18 10° SW 06:28:09 31° WNW 06:32:01 10° N
Cosmos 1727 Rocket 4.1 06:22:17 10° N 06:28:32 90° W 06:34:42 10° S
Cosmos 2341 Rocket 4.2 06:23:04 10° SSW 06:29:16 52° WNW 06:35:31 10° N
CORIOLIS 4.3 06:24:00 10° N 06:29:18 53° WNW 06:34:33 10° SW
Cosmos 1869 Rocket 4.1 06:27:03 10° S 06:31:25 66° E 06:35:51 10° NNE
